[[{"header":{"parameterUnit":"m.s-1","parameterCategory":1,"la1":30.2991,"la2":30.254,"lo1":-89.0895,"lo2":-89.0444,"dy":0.0017,"dx":0.0017,"nx":28,"ny":28,"refTime":"2024-05-17T21:00:00:Z","depth":0,"parameterNumber":2,"parameterNumberName":"U-component_of_WINDS"},"data":[0,0,0,0,0,0,0,0,0,0,0,0,0,0,0,0,0,0,0,0,0,0,0,0,0,0,0,0,0,0,0,0,0,0,0,0,0,0,0,0,0,0,0,0,0,0,0,0,0,0,0,0,0,0,0,0,0,0,2.1056,2.1055,0,2.097,2.0969,2.0968,2.0893,2.0892,2.0891,2.089,2.0801,2.08,2.0798,0,0,0,0,0,0,0,0,0,0,0,0,0,2.1157,2.1156,2.1056,2.1055,2.1054,2.097,2.0969,2.0968,2.0893,2.0892,2.0891,2.089,2.0802,2.08,2.0798,0,0,0,0,0,0,0,0,0,0,0,0,0,2.1096,2.1155,2.1057,2.1007,2.1001,2.0971,2.0969,2.0968,2.0893,2.0892,2.0891,2.089,2.0802,2.08,2.0798,2.0809,0,0,2.079,2.0789,0,0,0,0,0,0,0,0,2.11,2.1093,2.1015,2.101,2.1004,2.0941,2.0972,2.0914,2.0894,2.0934,2.089,2.0889,2.0849,2.0842,2.0829,2.0804,2.0801,2.079,2.0789,2.0788,2.0787,0,0,0,0,0,0,0,2.1104,2.1096,2.1022,2.1014,2.1007,2.0989,2.0979,2.0961,2.09,2.0931,2.0925,2.0916,2.0845,2.0831,2.0826,2.0799,2.079,2.0788,2.0787,2.0786,2.0782,2.0783,0,0,0,0,0,0,2.1116,2.11,2.1025,2.102,2.105,2.0988,2.0977,2.0963,2.09,2.0889,2.0917,2.0913,2.0836,2.0829,2.0823,2.0832,2.0788,2.0785,2.0784,2.078,2.0782,2.0783,0,0,0,0,0,0,2.1119,2.111,2.1028,2.1058,2.1046,2.0988,2.0972,2.0962,2.0947,2.0889,2.0878,2.0914,2.0835,2.0826,2.0813,2.0828,2.0784,2.0782,2.0779,2.0781,2.0783,2.0851,0,0,0,0,0,0,2.1122,2.1111,2.1114,2.1059,2.1045,2.102,2.0973,2.0961,2.0944,2.0937,2.0883,2.0873,2.0833,2.0817,2.0811,2.0824,2.078,2.0777,2.078,2.0782,2.0847,2.0855,2.0862,0,0,0,0,0,2.1126,2.1136,2.1115,2.1106,2.1048,2.1021,2.1013,2.0967,2.0945,2.0948,2.0911,2.0875,2.0828,2.0817,2.0809,2.0822,2.0776,2.0779,2.0782,2.0844,2.0854,2.0862,0,0,0,0,0,0,2.1194,2.1128,2.1103,2.1097,2.1065,2.1008,2.101,2.0978,2.0952,2.0947,2.089,2.0879,2.0873,2.0846,2.0834,2.083,2.0797,2.0799,2.0847,2.0856,2.0863,2.0869,2.0778,0,0,0,0,0,2.1208,2.1192,2.1135,2.1135,2.1121,2.1069,2.1055,2.1023,2.0987,2.0973,2.0935,2.0903,2.0881,2.0867,2.0843,2.0844,2.0832,2.0849,2.0857,2.0863,2.0865,2.0864,2.0872,2.0793,2.0793,2.0793,0,0,2.1237,2.12,2.1192,2.1148,2.1119,2.1104,2.1058,2.1043,2.1031,2.0971,2.0956,2.0928,2.0888,2.0883,2.0878,2.086,2.0884,2.0867,2.0873,2.087,2.0868,2.0876,2.0882,2.0795,2.0795,2.0795,0,0,2.1282,2.1252,2.1249,2.1222,2.1181,2.1147,2.1147,2.1095,2.1074,2.106,2.1015,2.1001,2.0963,2.0937,2.0919,2.0959,2.0925,2.0953,2.0991,2.0991,2.0997,2.1003,2.1017,2.1023,2.0955,2.0955,2.0955,0,2.1323,2.1298,2.1251,2.124,2.1222,2.1169,2.1166,2.1143,2.1096,2.1085,2.1066,2.102,2.0989,2.0977,2.0987,2.0974,2.0973,2.0957,2.1,2.1005,2.1009,2.1022,2.1028,2.0959,2.0958,2.0958,2.0958,0,2.1351,2.1335,2.1338,2.1295,2.1278,2.1271,2.1223,2.1212,2.1182,2.1151,2.1138,2.1099,2.1068,2.1063,2.1033,2.1048,2.1038,2.1011,2.0976,2.1021,2.1033,2.1037,2.0964,2.0963,2.0962,2.0961,0,0,2.1432,2.1367,2.1369,2.135,2.1302,2.1289,2.1281,2.1251,2.1242,2.1213,2.1205,2.1177,2.1152,2.1132,2.1099,2.11,2.1135,2.1072,2.107,2.1085,2.1149,2.1169,2.1176,2.1113,2.1114,2.1114,2.1152,0,2.1469,2.1451,2.141,2.1405,2.139,2.1342,2.1335,2.1306,2.1277,2.1261,2.1229,2.121,2.1179,2.1166,2.1165,2.1131,2.1147,2.1127,2.1104,2.1104,2.1115,2.1182,2.1202,2.124,2.1157,2.1157,2.1158,0,2.1508,2.1483,2.1477,2.1433,2.1425,2.1419,2.139,2.1376,2.1342,2.1321,2.1301,2.1266,2.1256,2.1226,2.1211,2.1199,2.1188,2.117,2.1171,2.1165,2.1132,2.1177,2.125,2.1256,2.1164,2.1164,2.1163,0,2.1568,2.1533,2.1525,2.1511,2.1459,2.1456,2.1435,2.14,2.1386,2.1361,2.1351,2.1326,2.1311,2.1292,2.1252,2.1234,2.1242,2.1209,2.1225,2.1226,2.1226,2.1227,2.1298,2.1222,2.1222,2.1222,2.1221,0,2.1612,2.161,2.1552,2.1547,2.1544,2.1499,2.1497,2.1471,2.1441,2.1431,2.1388,2.1379,2.1327,2.1312,2.1281,2.1274,2.1268,2.1251,2.1242,2.1254,2.1256,2.1244,2.124,2.1223,2.1223,2.1222,2.1222,0,2.1676,2.1638,2.1626,2.158,2.1568,2.1568,2.1528,2.1522,2.1493,2.1481,2.1475,2.1429,2.141,2.1368,2.1337,2.1317,2.1317,2.1302,2.1329,2.1323,2.1341,2.134,2.1406,2.1413,2.1334,2.1335,2.1336,0,2.1706,2.1704,2.1658,2.1649,2.1629,2.1614,2.1601,2.1557,2.1544,2.1509,2.1507,2.1485,2.1465,2.1438,2.1401,2.1378,2.1362,2.1387,2.1358,2.137,2.1362,2.1362,2.1362,2.1393,2.1394,2.1395,2.1395,0,2.1763,2.1745,2.1726,2.1703,2.1688,2.1667,2.1643,2.1638,2.1589,2.1578,2.1559,2.1544,2.1514,2.1493,2.1465,2.1443,2.1411,2.1406,2.1408,2.1419,2.1434,2.1426,2.1345,2.1403,2.1402,2.1402,2.1401,2.1401,2.181,2.1807,2.1775,2.1757,2.1736,2.1716,2.1708,2.168,2.1663,2.1636,2.1612,2.1596,2.1565,2.1525,2.1506,2.1492,2.1476,2.148,2.148,2.1481,2.1487,2.1438,2.1487,2.1487,2.1487,2.1486,2.1486,0,2.1864,2.1842,2.1827,2.1797,2.1783,2.1757,2.1731,2.1721,2.1707,2.1682,2.1664,2.1644,2.1624,2.1588,2.1566,2.1562,2.1547,2.1558,2.1557,2.1552,2.1502,2.1502,2.157,2.157,2.157,2.157,2.157,2.157,2.189,2.1884,2.1863,2.1846,2.1824,2.1808,2.1796,2.1778,2.1758,2.1737,2.1721,2.1699,2.1669,2.1645,2.1626,2.1616,2.161,2.1625,2.161,2.1564,2.1556,2.1548,2.1548,2.1624,2.1624,2.1661,2.1661,2.1661]},{"header":{"parameterUnit":"m.s-1","parameterCategory":1,"la1":30.2991,"la2":30.254,"lo1":-89.0895,"lo2":-89.0444,"dy":0.0017,"dx":0.0017,"nx":28,"ny":28,"refTime":"2024-05-17T21:00:00:Z","depth":0,"parameterNumber":3,"parameterNumberName":"V-component_of_WINDS"},"data":[0,0,0,0,0,0,0,0,0,0,0,0,0,0,0,0,0,0,0,0,0,0,0,0,0,0,0,0,0,0,0,0,0,0,0,0,0,0,0,0,0,0,0,0,0,0,0,0,0,0,0,0,0,0,0,0,0,0,4.6825,4.6825,0,4.677,4.677,4.6769,4.6711,4.671,4.6709,4.6708,4.6651,4.6651,4.665,0,0,0,0,0,0,0,0,0,0,0,0,0,4.6879,4.6879,4.6825,4.6825,4.6824,4.6771,4.677,4.6769,4.6711,4.671,4.6709,4.6708,4.6652,4.6651,4.665,0,0,0,0,0,0,0,0,0,0,0,0,0,4.6843,4.6878,4.6825,4.6789,4.6785,4.6771,4.677,4.6769,4.6711,4.671,4.6709,4.6708,4.6652,4.6651,4.665,4.6667,0,0,4.6646,4.6646,0,0,0,0,0,0,0,0,4.6845,4.6841,4.6795,4.6791,4.6787,4.6746,4.6768,4.6735,4.6711,4.6739,4.6708,4.6707,4.6684,4.668,4.6672,4.6665,4.6662,4.6646,4.6645,4.6645,4.6645,0,0,0,0,0,0,0,4.6848,4.6843,4.6804,4.6794,4.6789,4.6775,4.6768,4.6761,4.6719,4.6737,4.6732,4.6727,4.6681,4.6674,4.6671,4.6661,4.6646,4.6645,4.6644,4.6644,4.6666,4.6668,0,0,0,0,0,0,4.6856,4.6846,4.6805,4.6802,4.6814,4.6775,4.6767,4.676,4.6719,4.6711,4.6728,4.6724,4.6676,4.6672,4.6668,4.6687,4.6645,4.6644,4.6643,4.6665,4.6667,4.6668,0,0,0,0,0,0,4.6858,4.6853,4.6807,4.6823,4.6816,4.6775,4.6768,4.676,4.6752,4.6712,4.6704,4.6728,4.6675,4.667,4.6668,4.6684,4.6643,4.6642,4.6664,4.6666,4.6667,4.6725,0,0,0,0,0,0,4.6859,4.6854,4.686,4.6823,4.6815,4.6809,4.6769,4.676,4.675,4.6745,4.671,4.6703,4.6674,4.667,4.6667,4.6682,4.6641,4.6662,4.6665,4.6667,4.6721,4.6729,4.6735,0,0,0,0,0,4.6862,4.6878,4.6861,4.6856,4.6822,4.681,4.6805,4.6771,4.6752,4.6758,4.6733,4.6704,4.6683,4.6671,4.6667,4.6682,4.6661,4.6664,4.6667,4.6718,4.6727,4.6734,0,0,0,0,0,0,4.6917,4.6873,4.6853,4.6858,4.6838,4.68,4.6806,4.6781,4.6766,4.6762,4.672,4.6713,4.6717,4.6698,4.6685,4.6697,4.6668,4.667,4.6709,4.6717,4.6723,4.6728,4.6641,0,0,0,0,0,4.693,4.6924,4.6885,4.6893,4.6885,4.6848,4.6841,4.6817,4.6794,4.6785,4.6759,4.6739,4.6727,4.6721,4.6708,4.6718,4.671,4.6727,4.6733,4.6739,4.6742,4.6747,4.6754,4.6678,4.6678,4.6678,0,0,4.6957,4.6932,4.693,4.6904,4.6886,4.688,4.6841,4.6836,4.6832,4.6784,4.6782,4.6762,4.6736,4.6741,4.6742,4.6726,4.6761,4.6743,4.6747,4.6747,4.6751,4.6758,4.6764,4.668,4.6679,4.6679,0,0,4.7003,4.6983,4.6988,4.6971,4.6944,4.692,4.6921,4.6887,4.6872,4.6869,4.6834,4.6828,4.6809,4.6792,4.6781,4.6822,4.6796,4.6819,4.6854,4.686,4.6866,4.6871,4.6887,4.6893,4.6822,4.6822,4.6822,0,4.7039,4.703,4.6994,4.6992,4.6982,4.694,4.6945,4.693,4.69,4.6894,4.6877,4.6854,4.6833,4.6834,4.6844,4.6837,4.6837,4.6823,4.6868,4.6873,4.6877,4.6892,4.6898,4.6825,4.6825,4.6824,4.6824,0,4.7077,4.7071,4.7078,4.7052,4.7042,4.7044,4.7009,4.7004,4.6981,4.6958,4.6956,4.693,4.6912,4.691,4.6887,4.6908,4.6899,4.6876,4.6846,4.6888,4.6901,4.6907,4.683,4.6829,4.6828,4.6827,0,0,4.7156,4.7111,4.7114,4.7102,4.707,4.7065,4.7065,4.7048,4.7045,4.7026,4.7025,4.7011,4.699,4.6977,4.6952,4.6957,4.6993,4.6933,4.6932,4.6946,4.7016,4.7035,4.7042,4.6975,4.6976,4.6976,4.7019,0,4.7197,4.7195,4.7164,4.7171,4.7166,4.7126,4.7126,4.7106,4.7085,4.7078,4.7054,4.7045,4.7017,4.701,4.7012,4.6988,4.7007,4.6984,4.6975,4.6975,4.6984,4.7049,4.7068,4.7109,4.7023,4.7024,4.7025,0,4.7245,4.723,4.7237,4.7206,4.7203,4.7204,4.7186,4.7179,4.7157,4.7141,4.7128,4.71,4.7098,4.707,4.7067,4.7053,4.7047,4.7035,4.7035,4.7034,4.7003,4.705,4.7121,4.7128,4.7032,4.7032,4.7031,0,4.7304,4.7285,4.7288,4.7278,4.7242,4.7244,4.7228,4.7204,4.7197,4.7181,4.7176,4.716,4.7152,4.7141,4.7109,4.7091,4.7111,4.708,4.7099,4.71,4.7105,4.7106,4.7178,4.71,4.71,4.71,4.71,0,4.7353,4.736,4.7314,4.7315,4.7321,4.7285,4.7292,4.7273,4.7252,4.7249,4.7213,4.7211,4.7169,4.7163,4.7138,4.7141,4.7137,4.7125,4.7118,4.7129,4.7131,4.7125,4.7122,4.7101,4.7101,4.7101,4.71,0,4.742,4.739,4.739,4.7356,4.7347,4.7353,4.7324,4.7324,4.7301,4.7299,4.7296,4.726,4.7251,4.7218,4.72,4.7184,4.7195,4.7181,4.7203,4.7199,4.722,4.722,4.7293,4.7301,4.7217,4.7218,4.7218,0,4.7455,4.7459,4.7425,4.7422,4.7408,4.7402,4.7394,4.7358,4.7352,4.7327,4.7331,4.7319,4.7307,4.7295,4.7267,4.7254,4.724,4.7267,4.7238,4.7249,4.7243,4.7243,4.7244,4.7274,4.7275,4.7276,4.7276,0,4.7519,4.7504,4.7495,4.7481,4.7473,4.746,4.7444,4.7443,4.7403,4.7398,4.7388,4.738,4.7363,4.7352,4.7334,4.7318,4.7291,4.7286,4.729,4.7301,4.7314,4.7309,4.7221,4.7284,4.7283,4.7283,4.7282,4.7282,4.7571,4.7574,4.7552,4.7543,4.7528,4.7515,4.7514,4.7491,4.7483,4.7467,4.7446,4.744,4.7418,4.7391,4.7378,4.7372,4.7357,4.7363,4.7364,4.7367,4.7373,4.7314,4.7369,4.7369,4.7368,4.7368,4.7368,0,4.7635,4.7619,4.7612,4.7592,4.7586,4.7561,4.7543,4.7539,4.7534,4.7516,4.7506,4.7496,4.7486,4.7458,4.7445,4.7446,4.7433,4.7444,4.7444,4.7441,4.7386,4.7384,4.7454,4.7454,4.7454,4.7454,4.7454,4.7454,4.7668,4.7671,4.7654,4.765,4.7634,4.7628,4.762,4.7608,4.7594,4.7585,4.7576,4.7558,4.7536,4.7521,4.7511,4.7503,4.75,4.7515,4.7504,4.7453,4.7445,4.7437,4.7435,4.7515,4.7515,4.7559,4.756,4.756]}]]